[[{"header":{"parameterUnit":"m.s-1","parameterCategory":1,"la1":30.2991,"la2":30.254,"lo1":-89.0895,"lo2":-89.0444,"dy":0.0017,"dx":0.0017,"nx":28,"ny":28,"refTime":"2025-04-10T03:00:00:Z","depth":0,"parameterNumber":2,"parameterNumberName":"U-component_of_WINDS"},"data":[0,0,0,0,0,0,0,0,0,0,0,0,0,0,0,0,0,0,0,0,0,0,0,0,0,0,0,0,0,0,0,0,0,0,0,0,0,0,0,0,0,0,0,0,0,0,0,0,0,0,0,0,0,0,0,0,0,0,2.5743,2.5745,0,2.5882,2.5884,2.5885,2.5883,2.5881,2.5879,2.5877,2.6022,2.6028,2.6033,0,0,0,0,0,0,0,0,0,0,0,0,0,2.5479,2.5484,2.5743,2.5745,2.5747,2.5882,2.5884,2.5886,2.5883,2.5881,2.5879,2.5877,2.602,2.6027,2.6034,0,0,0,0,0,0,0,0,0,0,0,0,0,2.5603,2.5485,2.5743,2.5762,2.5765,2.5881,2.5884,2.5886,2.5884,2.5881,2.5878,2.5875,2.6018,2.6026,2.6035,2.6143,0,0,2.606,2.6064,0,0,0,0,0,0,0,0,2.5596,2.5613,2.5757,2.5761,2.5764,2.5862,2.5844,2.5972,2.5884,2.5839,2.5877,2.5874,2.5971,2.5984,2.6016,2.6149,2.6155,2.6061,2.6066,2.607,2.6072,0,0,0,0,0,0,0,2.5588,2.5607,2.5798,2.5759,2.5764,2.5764,2.5779,2.5868,2.5919,2.5842,2.5843,2.5859,2.5973,2.6008,2.6019,2.6158,2.6061,2.6068,2.6073,2.6077,2.6386,2.6389,0,0,0,0,0,0,2.5575,2.56,2.5794,2.5802,2.5672,2.5771,2.5787,2.5834,2.5918,2.5928,2.5861,2.5858,2.5995,2.6009,2.6024,2.6155,2.607,2.6078,2.6082,2.6383,2.6387,2.639,0,0,0,0,0,0,2.5569,2.5592,2.5788,2.5701,2.5726,2.5779,2.5831,2.5838,2.5872,2.5932,2.5942,2.5887,2.5993,2.6012,2.6113,2.616,2.6081,2.6089,2.6379,2.6384,2.6388,2.6417,0,0,0,0,0,0,2.5562,2.559,2.5631,2.5702,2.5731,2.5873,2.5834,2.5843,2.5887,2.5884,2.5959,2.5969,2.5992,2.61,2.6121,2.617,2.6096,2.6375,2.6381,2.6387,2.6412,2.6422,2.6431,0,0,0,0,0,2.5552,2.5634,2.5633,2.5656,2.5783,2.5876,2.5893,2.5917,2.5891,2.5932,2.5971,2.5966,2.6152,2.611,2.6134,2.6186,2.6372,2.6379,2.6386,2.6408,2.642,2.643,0,0,0,0,0,0,2.5568,2.5644,2.5643,2.5751,2.5807,2.5875,2.5928,2.593,2.5995,2.599,2.6019,2.6036,2.6136,2.6172,2.6124,2.6294,2.6259,2.6271,2.6267,2.6279,2.6288,2.6276,2.6102,0,0,0,0,0,2.5583,2.5652,2.5715,2.5804,2.5832,2.5876,2.5917,2.5932,2.5991,2.6015,2.6061,2.612,2.6191,2.6238,2.6307,2.6418,2.6434,2.6466,2.6475,2.6482,2.6492,2.6552,2.6566,2.6413,2.6413,2.6413,0,0,2.5617,2.5667,2.5709,2.5808,2.5854,2.5924,2.5896,2.5972,2.6025,2.6027,2.6123,2.616,2.6228,2.6333,2.6382,2.6366,2.6538,2.6491,2.6497,2.6502,2.6561,2.6575,2.6588,2.6418,2.6417,2.6417,0,0,2.5713,2.5759,2.5837,2.5883,2.5951,2.598,2.5999,2.6068,2.6091,2.6189,2.6191,2.6256,2.6378,2.6426,2.6466,2.6582,2.658,2.6604,2.6652,2.671,2.6722,2.6733,2.6772,2.6786,2.6614,2.6614,2.6614,0,2.5746,2.5852,2.5877,2.5953,2.5997,2.6002,2.6081,2.6125,2.6213,2.6244,2.6224,2.6378,2.6424,2.654,2.6568,2.6602,2.6624,2.6594,2.6719,2.673,2.674,2.6778,2.6793,2.6616,2.6616,2.6616,2.6616,0,2.5888,2.5962,2.6017,2.61,2.6151,2.6228,2.6266,2.6314,2.6325,2.6355,2.6454,2.651,2.659,2.6619,2.6631,2.6738,2.6725,2.6712,2.6676,2.6756,2.6792,2.6807,2.6619,2.6619,2.6618,2.6617,0,0,2.5995,2.6092,2.6112,2.615,2.6226,2.6284,2.6363,2.644,2.648,2.6542,2.6607,2.6711,2.6699,2.6745,2.6763,2.6814,2.69,2.6795,2.6797,2.6811,2.7019,2.7026,2.7043,2.6901,2.6904,2.6906,2.7013,0,2.6098,2.6235,2.6261,2.6381,2.6449,2.6455,2.6524,2.6578,2.661,2.6673,2.6708,2.678,2.6761,2.6788,2.684,2.6879,2.6942,2.6872,2.6961,2.6964,2.6941,2.7062,2.707,2.7168,2.7027,2.703,2.7031,0,2.6235,2.6298,2.6425,2.6492,2.6521,2.6582,2.6655,2.6715,2.6778,2.6797,2.6848,2.686,2.6942,2.6905,2.7018,2.6969,2.7008,2.7033,2.7037,2.7044,2.7,2.707,2.72,2.7214,2.7054,2.7052,2.7051,0,2.6297,2.6415,2.6506,2.6538,2.6619,2.6662,2.6698,2.6758,2.6802,2.6867,2.6896,2.697,2.701,2.7067,2.7098,2.7068,2.7209,2.7174,2.7226,2.7225,2.7253,2.725,2.7388,2.7282,2.7282,2.7282,2.7282,0,2.6407,2.6484,2.6535,2.659,2.6676,2.6706,2.679,2.6826,2.688,2.6942,2.6954,2.7013,2.7052,2.7117,2.7142,2.7231,2.725,2.7267,2.7273,2.7265,2.7262,2.7288,2.7281,2.7286,2.7285,2.7284,2.7284,0,2.649,2.6528,2.6626,2.6696,2.6715,2.6775,2.6834,2.6889,2.6921,2.7,2.7021,2.7071,2.7148,2.7185,2.7281,2.7298,2.7398,2.7401,2.7376,2.7378,2.7427,2.7421,2.7585,2.7607,2.7488,2.749,2.749,0,2.6557,2.6615,2.6691,2.6733,2.677,2.6839,2.6884,2.6917,2.6964,2.704,2.7085,2.7162,2.7225,2.7348,2.7393,2.7466,2.7469,2.7522,2.748,2.747,2.7467,2.7462,2.7467,2.7528,2.7529,2.753,2.7531,0,2.6669,2.6685,2.675,2.6822,2.6875,2.6934,2.6991,2.7025,2.7067,2.712,2.7198,2.7247,2.7344,2.742,2.7497,2.7535,2.754,2.7544,2.756,2.755,2.7533,2.7541,2.7394,2.7539,2.7539,2.7538,2.7537,2.7537,2.6744,2.6797,2.6858,2.6929,2.6976,2.7029,2.7083,2.7122,2.7188,2.7268,2.7285,2.7367,2.7429,2.7532,2.7573,2.7638,2.7626,2.7649,2.7655,2.7659,2.766,2.7525,2.7653,2.7652,2.7652,2.7652,2.7652,0,2.6855,2.6895,2.6961,2.7041,2.7097,2.7098,2.7162,2.7209,2.7281,2.7338,2.74,2.7489,2.7564,2.7615,2.7691,2.7733,2.7737,2.7751,2.7747,2.7756,2.7668,2.7645,2.7747,2.7747,2.7747,2.7747,2.7747,2.7747,2.692,2.7007,2.7031,2.7142,2.7182,2.7262,2.7298,2.7347,2.7393,2.7492,2.7553,2.7587,2.7642,2.7721,2.7789,2.7803,2.7829,2.7843,2.7856,2.7772,2.7762,2.7752,2.7731,2.7849,2.7849,2.7938,2.7939,2.7939]},{"header":{"parameterUnit":"m.s-1","parameterCategory":1,"la1":30.2991,"la2":30.254,"lo1":-89.0895,"lo2":-89.0444,"dy":0.0017,"dx":0.0017,"nx":28,"ny":28,"refTime":"2025-04-10T03:00:00:Z","depth":0,"parameterNumber":3,"parameterNumberName":"V-component_of_WINDS"},"data":[0,0,0,0,0,0,0,0,0,0,0,0,0,0,0,0,0,0,0,0,0,0,0,0,0,0,0,0,0,0,0,0,0,0,0,0,0,0,0,0,0,0,0,0,0,0,0,0,0,0,0,0,0,0,0,0,0,0,4.3608,4.361,0,4.3789,4.3791,4.3793,4.38,4.3798,4.3795,4.3793,4.3969,4.3975,4.3982,0,0,0,0,0,0,0,0,0,0,0,0,0,4.3256,4.3262,4.3607,4.361,4.3612,4.3789,4.3791,4.3794,4.38,4.3797,4.3795,4.3792,4.3966,4.3974,4.3982,0,0,0,0,0,0,0,0,0,0,0,0,0,4.342,4.3264,4.3607,4.3637,4.3641,4.3788,4.3791,4.3794,4.3801,4.3797,4.3794,4.3791,4.3964,4.3973,4.3983,4.411,0,0,4.4014,4.4018,0,0,0,0,0,0,0,0,4.341,4.3433,4.363,4.3635,4.364,4.3769,4.3731,4.39,4.3801,4.374,4.3793,4.379,4.3904,4.3919,4.3959,4.4118,4.4125,4.4015,4.4021,4.4025,4.4028,0,0,0,0,0,0,0,4.3399,4.3425,4.3679,4.3633,4.3639,4.3637,4.3657,4.3763,4.3837,4.3745,4.3746,4.3768,4.3906,4.395,4.3964,4.4128,4.4014,4.4023,4.403,4.4033,4.4396,4.4399,0,0,0,0,0,0,4.3383,4.3415,4.3673,4.3684,4.3515,4.3646,4.3669,4.373,4.3836,4.385,4.377,4.3767,4.3934,4.3952,4.397,4.4123,4.4025,4.4034,4.404,4.4392,4.4397,4.4401,0,0,0,0,0,0,4.3376,4.3406,4.3666,4.355,4.3583,4.3656,4.3725,4.3736,4.378,4.3856,4.3868,4.3802,4.3932,4.3956,4.4075,4.4129,4.4039,4.4048,4.4388,4.4394,4.4399,4.4432,0,0,0,0,0,0,4.3366,4.3404,4.3455,4.3552,4.359,4.3772,4.3729,4.3742,4.3798,4.3796,4.3889,4.3901,4.3932,4.406,4.4085,4.4142,4.4056,4.4383,4.4391,4.4397,4.4426,4.4438,4.4448,0,0,0,0,0,4.3353,4.3455,4.3458,4.3489,4.3656,4.3775,4.3796,4.3832,4.3803,4.3853,4.3901,4.3898,4.412,4.4072,4.41,4.4161,4.438,4.4389,4.4397,4.4421,4.4436,4.4448,0,0,0,0,0,0,4.336,4.3468,4.3472,4.361,4.3683,4.3776,4.3841,4.3846,4.3928,4.3922,4.396,4.3981,4.4099,4.4142,4.4087,4.4287,4.4246,4.426,4.4255,4.4269,4.428,4.4266,4.4064,0,0,0,0,0,4.3378,4.3469,4.3557,4.367,4.3707,4.3768,4.3821,4.3842,4.3919,4.3949,4.4006,4.4078,4.4163,4.4218,4.4302,4.4432,4.4451,4.4487,4.4498,4.4507,4.4518,4.4588,4.4605,4.4428,4.4427,4.4427,0,0,4.3415,4.3485,4.354,4.3673,4.3733,4.3822,4.3794,4.389,4.3956,4.3962,4.408,4.4124,4.4205,4.4331,4.4389,4.437,4.4571,4.4517,4.4523,4.453,4.4598,4.4615,4.463,4.4433,4.4432,4.4431,0,0,4.3528,4.3592,4.3692,4.3753,4.3845,4.3885,4.3908,4.4001,4.4031,4.415,4.4156,4.4233,4.438,4.4438,4.4486,4.4621,4.4619,4.4646,4.4702,4.477,4.4784,4.4796,4.4842,4.4859,4.4658,4.4658,4.4658,0,4.3561,4.3701,4.3741,4.3839,4.3896,4.3909,4.4009,4.4064,4.4177,4.4214,4.4193,4.4377,4.4433,4.4571,4.4604,4.4644,4.4669,4.4636,4.4779,4.4792,4.4804,4.4849,4.4866,4.466,4.466,4.466,4.4659,0,4.3736,4.3833,4.3902,4.4014,4.4079,4.4176,4.4228,4.4288,4.4304,4.4344,4.4463,4.4531,4.4627,4.4662,4.4677,4.4802,4.4787,4.4772,4.4731,4.4823,4.4865,4.4883,4.4664,4.4663,4.4662,4.4662,0,0,4.3859,4.3993,4.4017,4.4068,4.417,4.4244,4.434,4.4438,4.4487,4.4564,4.4644,4.4768,4.4755,4.481,4.4831,4.4891,4.4991,4.4868,4.4871,4.4887,4.513,4.514,4.5159,4.4991,4.4994,4.4997,4.5122,0,4.3982,4.4159,4.4198,4.4348,4.4436,4.445,4.4533,4.4603,4.4643,4.472,4.4763,4.485,4.4827,4.486,4.492,4.4966,4.504,4.4958,4.5062,4.5066,4.5041,4.5182,4.5193,4.5308,4.5139,4.5142,4.5144,0,4.415,4.4234,4.4395,4.4485,4.4523,4.4598,4.469,4.4765,4.4843,4.4867,4.4929,4.4944,4.5041,4.4996,4.5129,4.5072,4.5117,4.5146,4.5151,4.5161,4.511,4.5194,4.5346,4.5362,4.5171,4.5169,4.5167,0,4.4221,4.4374,4.449,4.4533,4.4641,4.4693,4.474,4.4815,4.4871,4.495,4.4986,4.5073,4.5121,4.5187,4.5223,4.5188,4.5352,4.5311,4.5373,4.5372,4.5406,4.5403,4.5565,4.5437,4.5436,4.5436,4.5436,0,4.4354,4.4451,4.4524,4.4595,4.4703,4.4745,4.4849,4.4895,4.4961,4.5039,4.5054,4.5125,4.517,4.5247,4.5276,4.538,4.5401,4.5421,4.5427,4.542,4.5417,4.5448,4.5441,4.5441,4.544,4.5439,4.5438,0,4.4452,4.4505,4.4631,4.4724,4.4749,4.4825,4.4902,4.4969,4.501,4.5107,4.5132,4.5194,4.5285,4.5329,4.544,4.546,4.5577,4.5579,4.5552,4.5554,4.5613,4.5606,4.5801,4.5827,4.5682,4.5683,4.5684,0,4.4533,4.4608,4.471,4.4765,4.4814,4.4901,4.4959,4.5002,4.5061,4.5155,4.521,4.5303,4.5379,4.5522,4.5575,4.566,4.5662,4.5725,4.5675,4.5664,4.5662,4.5656,4.5663,4.5733,4.5734,4.5736,4.5736,0,4.467,4.4693,4.4778,4.4872,4.4941,4.5016,4.5089,4.5132,4.5186,4.5251,4.5346,4.5406,4.5521,4.5611,4.57,4.5743,4.5748,4.5752,4.5771,4.5762,4.5744,4.5753,4.5575,4.5747,4.5746,4.5745,4.5745,4.5744,4.4761,4.4828,4.4911,4.5004,4.5065,4.5133,4.5201,4.5251,4.5332,4.5432,4.5452,4.5552,4.5625,4.5745,4.5792,4.5868,4.5854,4.5881,4.5887,4.5893,4.5896,4.5733,4.5884,4.5884,4.5884,4.5884,4.5883,0,4.4898,4.4952,4.5038,4.5142,4.5214,4.5217,4.5298,4.5357,4.5447,4.5517,4.5592,4.57,4.5788,4.5848,4.5935,4.5985,4.5989,4.6006,4.6002,4.6012,4.5904,4.5879,4.6001,4.6001,4.6001,4.6001,4.6001,4.6001,4.4978,4.5092,4.5124,4.5266,4.5318,4.542,4.5466,4.5528,4.5584,4.5705,4.578,4.582,4.5884,4.5977,4.6056,4.6071,4.6102,4.612,4.6134,4.6032,4.6019,4.6008,4.5984,4.6126,4.6126,4.6235,4.6236,4.6236]}]]